Weather History for PMDY - January, 2014

Change the Weather History Date:

Saturday, January 18, 2014

  Actual Average Record
Temperature  
Mean Temperature 67 °F -  
Max Temperature 72 °F - - ()
Min Temperature 64 °F - - ()
Cooling Degree Days 2    
Growing Degree Days 17 (Base 50)    
Moisture  
Dew Point 48 °F    
Average Humidity 52    
Maximum Humidity 58    
Minimum Humidity 44    
Precipitation  
Precipitation 0.00 in - - ()
Sea Level Pressure  
Sea Level Pressure 30.84 in    
Wind  
Wind Speed 9 mph (West)    
Max Wind Speed 16 mph    
Max Gust Speed 17 mph    
Visibility 8 miles    
Events      
T = Trace of Precipitation, MM = Missing Value Source: NWS Daily Summary

Daily Weather History Graph

Daily Weather History Graph

Search for Another Location

Airport or City:

Trip Planner

Search our weather history database for the weather conditions in past years. The results will help you decide how hot, cold, wet, or windy it might be!

Date:

Astronomy

Jan. 18, 2014 Rise Set
Actual Time 6:42 PM GMT 5:18 AM GMT
Civil Twilight 6:16 PM GMT 5:43 AM GMT
Nautical Twilight 5:48 PM GMT 6:12 AM GMT
Astronomical Twilight 5:19 PM GMT 6:40 AM GMT
Moon 7:03 AM GMT (1/18) 8:05 PM GMT (1/18)
Length of Visible Light 11h 26m
Length of Day
10h 36m
Waning Gibbous, 95% of the Moon is Illuminated
Jan 18
Waning Gibbous
Jan 24
Last Quarter
Jan 30
New
Feb 6
First Quarter
Feb 14
Full

Hourly Weather History & Observations

Time (GMT) Temp. Dew Point Humidity Pressure Visibility Wind Dir Wind Speed Gust Speed Precip Events Conditions
12:56 AM 70.0 °F 47.8 °F 45% 30.84 in 7.0 mi WNW 9.2 mph 17.3 mph N/A   Partly Cloudy
1:56 AM 70.0 °F 50.0 °F 49% 30.85 in 6.0 mi WNW 9.2 mph - N/A   Haze
2:56 AM 70.0 °F 46.9 °F 44% 30.85 in 7.0 mi NW 9.2 mph - N/A   Partly Cloudy
3:56 AM 66.9 °F 45.9 °F 47% 30.87 in 7.0 mi NW 5.8 mph - N/A   Clear
4:56 AM 66.9 °F 47.8 °F 50% 30.88 in 6.0 mi NNW 5.8 mph - N/A   Haze
5:56 AM 64.9 °F 45.9 °F 50% 30.89 in 8.0 mi Calm Calm - N/A   Clear
6:56 AM 64.9 °F 45.9 °F 50% 30.91 in 9.0 mi Calm Calm - N/A   Mostly Cloudy
7:56 AM 64.9 °F 45.9 °F 50% 30.93 in 8.0 mi West 6.9 mph - N/A   Mostly Cloudy
8:56 AM 64.4 °F 48.2 °F 56% 30.03 in 8.0 mi West 10.4 mph - N/A   Mostly Cloudy
9:56 AM 64.9 °F 48.9 °F 56% 30.95 in 8.0 mi West 9.2 mph - N/A   Mostly Cloudy
10:56 AM 64.9 °F 47.8 °F 54% 30.94 in 8.0 mi West 8.1 mph - N/A   Partly Cloudy
11:56 AM 64.9 °F 45.0 °F 48% 30.92 in 9.0 mi West 9.2 mph - N/A   Partly Cloudy
12:56 PM 64.9 °F 50.0 °F 58% 30.92 in 8.0 mi West 10.4 mph - N/A   Mostly Cloudy
1:56 PM 64.9 °F 48.9 °F 56% 30.92 in 8.0 mi WNW 11.5 mph - N/A   Partly Cloudy
2:56 PM 64.9 °F 47.8 °F 54% 30.93 in 8.0 mi WNW 9.2 mph - N/A   Clear
3:56 PM 64.9 °F 48.9 °F 56% 30.92 in 8.0 mi West 10.4 mph - N/A   Mostly Cloudy
4:56 PM 64.9 °F 50.0 °F 58% 30.92 in 8.0 mi West 9.2 mph - N/A   Overcast
5:56 PM 64.4 °F 48.2 °F 56% 30.01 in 8.0 mi West 9.2 mph - N/A   Mostly Cloudy
6:56 PM 64.9 °F 50.0 °F 58% 30.95 in 7.0 mi West 12.7 mph - N/A   Partly Cloudy
7:56 PM 66.9 °F 48.9 °F 52% 30.97 in 7.0 mi West 12.7 mph - N/A   Clear
8:56 PM 68.9 °F 47.8 °F 47% 30.97 in 8.0 mi West 10.4 mph - N/A   Clear
9:56 PM 70.0 °F 48.9 °F 47% 30.95 in 8.0 mi WSW 13.8 mph - N/A   Clear
10:56 PM 70.9 °F 50.9 °F 49% 30.94 in 8.0 mi WSW 16.1 mph - N/A   Clear
11:56 PM 72.0 °F 52.0 °F 49% 30.91 in 8.0 mi WSW 12.7 mph - N/A   Clear